Regional Weather Roundup
Issued by NWS Sterling, VA

Home | Current Version | Previous Version | Graphics & Text | Print | Product List | Glossary On
Versions: 1 2 3 4 5 6 7 8 9 10 11 12 13 14 15 16 17 18 19 20 21 22 23 24 25 26 27 28 29 30 31 32 33 34 35 36 37 38 39 40 41 42 43 44 45 46 47 48 49 50
695
ASUS41 KLWX 230611
RWRLWX

REGIONAL WEATHER ROUNDUP
NATIONAL WEATHER SERVICE BALTIMORE MD/WASHINGTON DC
200 AM EDT SAT SEP 23 2017

Note: "FAIR" indicates few or no clouds below 12,000 feet
with no significant weather and/or obstructions to visibility.
 TC=TEMPERATURE CELSIUS

 * =Non NWS site. Station does not report precipitation (e.g. rain,
    snow, etc.), thunder, or fog.

DCZ001-MDZ009-015-VAZ040>042-051-053>054-230700-
WASHINGTON METRO

CITY           SKY/WX    TMP DP  RH WIND       PRES   REMARKS
WASHINGTON NAT MOCLDY    69  62  78 N7        30.03R
DULLES         MOCLDY    61  61 100 CALM      30.04S
ANDREWS AFB    PTCLDY    64  57  78 N7        30.02R
FT BELVOIR     CLEAR     63  62  96 CALM      30.03R
QUANTICO       PTCLDY    67  66  97 NW9       30.04R
COLLEGE PARK*    N/A     61  61  97 CALM      30.02S
LEESBURG*      PTCLDY    63  63 100 CALM      30.06S
MANASSAS*      FOG       58  58 100 CALM      30.05R VSB 1/4
GAITHERSBURG*  PTCLDY    60  58  92 CALM      30.05S

$$

MDZ006>007-011-014-230700-
BALTIMORE METRO

CITY           SKY/WX    TMP DP  RH WIND       PRES   REMARKS
BWI AIRPORT    MOCLDY    64  59  83 W3        30.01S
MD SCIENCE CTR   N/A     74  55  51 MISG      30.01F
MARTIN STATE   PTCLDY    64  59  82 CALM      30.02F
ANNAPOLIS      PTCLDY    73  68  84 NW3       30.01R
FORT MEADE*    PTCLDY    59  57  94 CALM      30.05R

$$

MDZ012-015-019>023-230700-
MARYLAND EASTERN SHORE

CITY           SKY/WX    TMP DP  RH WIND       PRES   REMARKS
OCEAN CITY     CLEAR     67  63  87 NW6       29.98S
SALISBURY      CLEAR     66  63  90 NW5       29.98S
CAMBRIDGE*     CLEAR     72  64  78 NW6       30.00R
EASTON*        CLEAR     67  63  84 CALM      30.04S

$$

MDZ017>025-230700-
SOUTHERN MARYLAND

CITY           SKY/WX    TMP DP  RH WIND       PRES   REMARKS
PATUXENT RIVER CLEAR     68  65  90 W3        30.00S
ST INIGOES     CLEAR     63  63 100 CALM      30.00S
LEONARDTOWN*   CLEAR     64  63  94 NW3       30.03S

$$

MDZ003>005-230700-
NORTH CENTRAL MARYLAND

CITY           SKY/WX    TMP DP  RH WIND       PRES   REMARKS
FREDERICK*     FOG       59  59 100 CALM      30.08R VSB 1/2
HAGERSTOWN APT CLEAR     65  59  81 N8        30.07S
WESTMINSTER*   CLOUDY    63  57  82 NW3       30.06S

$$

MDZ501>502-230700-
WESTERN MARYLAND

CITY           SKY/WX    TMP DP  RH WIND       PRES   REMARKS
OAKLAND*       CLEAR     64  46  52 CALM      30.15S
CUMBERLAND*    CLEAR     61  59  94 CALM      30.13R

$$

VAZ025>031-230700-
SHENANDOAH VALLEY

CITY           SKY/WX    TMP DP  RH WIND       PRES   REMARKS
WINCHESTER*    MOCLDY    59  59 100 NW5       30.07S
FRONT ROYAL*   MOCLDY    61  61 100 CALM      30.07R
LURAY*         PTCLDY    59  59 100 CALM      30.08S
NEW MARKET*    MOCLDY    59  58  96 CALM      30.08S
STAUNTON*      PTCLDY    61  59  95 CALM      30.11S
WAYNESBORO*    PTCLDY    62  62 100 CALM      30.11S

$$

WVZ021-048>050-054>055-230700-
EASTERN WEST VIRGINIA PANHANDLE

CITY           SKY/WX    TMP DP  RH WIND       PRES   REMARKS
MARTINSBURG    PTCLDY    59  57  93 CALM      30.06R
PETERSBURG*    CLOUDY    62  62  97 CALM      30.10S FOG

$$

VAZ036>039-050-230700-
CENTRAL FOOTHILLS

CITY           SKY/WX    TMP DP  RH WIND       PRES   REMARKS
CHARLOTTESVILL CLOUDY    68  66  93 CALM      30.06S
CULPEPER*      PTCLDY    64  64 100 CALM      30.06S
ORANGE*        PTCLDY    63  61  94 CALM      30.05S FOG
GORDONSVILLE*  PTCLDY    63  63 100 CALM      30.05S FOG
WARRENTON*     FOG       58  55  90 CALM      30.04S VSB 1/4

$$

VAZ055>057-230700-
NORTH AND CENTRAL PIEDMONT

CITY           SKY/WX    TMP DP  RH WIND       PRES   REMARKS
FREDERICKSBRG* PTCLDY    65  65 100 CALM      30.03R
STAFFORD*      PTCLDY    63  63 100 NW5       30.08R

$$

NCZ024-NYZ072-PAZ021-071-VAZ022-071-230700-
OTHER REGIONAL OBSERVATIONS

CITY           SKY/WX    TMP DP  RH WIND       PRES   REMARKS
NEW YORK CITY  MOCLDY    72  56  57 VRB7      30.02S
PHILADELPHIA   PTCLDY    71  53  52 N5        30.01S
PITTSBURGH     PTCLDY    63  57  81 NW3       30.10S
ROANOKE        MOCLDY    66  63  90 CALM      30.10R
RICHMOND       CLEAR     63  62  97 CALM      30.03S
RALEIGH        MOCLDY    69  65  86 E5        30.04R

$$

ANZ530>537-230700-
MARINE OBSERVATIONS

STATION/POSITION TIME  TEMP    WIND        PRES
                       AIR SEA DIR/SP/G
                 (UTC) (F)     (DEG/KT/KT) (MB)
THOMAS PT LIGHT  0600   73 76  350/  7/  8   N/A
BALT KEY BRIDGE  0536   74      10/  8/  8 1016.2R
COVE POINT       0536   74     330/  5/  8 1016.6R
LEWISETTA        0536   69 77  290/  3/  4 1015.8F
SOLOMONS ISLAND  0536   71 76  290/  3/  4 1015.7R
PINEY POINT      0548          340/  9/  9   N/A

$$





USA.gov is the U.S. government's official web portal to all federal, state and local government web resources and services.